Regional Weather Roundup
Issued by NWS

Home | Current Version | Previous Version | Text Only | Print | Product List | Glossary On
Versions: 1 2 3 4 5 6 7 8 9 10 11 12 13 14 15 16 17 18 19 20 21 22 23 24 25 26 27 28 29 30 31 32 33 34 35 36 37 38 39 40 41 42 43 44 45 46 47 48 49 50
000
ASUS45 KREV 190310
RWRNV
NEVADA REGIONAL WEATHER ROUNDUP
NATIONAL WEATHER SERVICE RENO NV
800 PM PDT SAT APR 18 2015

NOTE: "FAIR" INDICATES FEW OR NO CLOUDS BELOW 12,000 FEET WITH NO
SIGNIFICANT WEATHER AND/OR OBSTRUCTIONS TO VISIBILITY.

NVZ001-003-004-190400-
WESTERN NEVADA

CITY           SKY/WX    TMP DP  RH WIND       PRES   REMARKS
RENO           MOCLDY    69  18  14 N10       30.04R
CARSON CITY    FAIR      66  18  15 NE13      30.05R
MINDEN         MOCLDY    55  25  30 E7        30.06
SLIDE MTN        N/A     43  19  39 NE15        N/A
PYRAMID LAKE     N/A     66 N/A N/A VRB2        N/A
FALLON         CLEAR     64  17  16 N9        30.01R
LOVELOCK       CLEAR     66  21  18 NE12      30.03R
HAWTHORNE      CLEAR     66  18  15 NW8       30.02R
$$

NVZ002-CAZ072-073-190400-
NORTHERN AND CENTRAL SIERRA

CITY           SKY/WX    TMP DP  RH WIND       PRES   REMARKS
S. LAKE TAHOE  CLOUDY    52  27  38 E3        30.12R
TRUCKEE        CLOUDY    50  30  46 S3        30.12R
SQUAW VLY 8000   N/A     45  21  39 N3          N/A
SUSANVILLE     PTCLDY    66  27  22 N14       30.05R
BLUE CANYON    MOCLDY    61  23  23 N3        30.09F
MAMMOTH LAKES  FAIR      55  23  28 NW10      30.15R
BRIDGEPORT     FAIR      53  21  28 CALM      30.12F
$$

NVZ030-031-036-190400-
NORTHERN NEVADA

CITY           SKY/WX    TMP DP  RH WIND       PRES   REMARKS
ELKO           CLEAR     58  22  24 N3        30.08R
WINNEMUCCA     CLEAR     60  16  18 NE14      30.10R
WENDOVER       PTCLDY    63  12  14 N13       30.01R
$$

NVZ035-037-190400-
CENTRAL NEVADA

CITY           SKY/WX    TMP DP  RH WIND       PRES   REMARKS
ELY            MOCLDY    54  12  18 N8        30.07R
EUREKA           N/A     50  19  29 N8        30.10R
$$

NVZ013-014-190400-
SOUTH CENTRAL NEVADA

CITY           SKY/WX    TMP DP  RH WIND       PRES   REMARKS
TONOPAH        PTCLDY    65  10  11 N10       30.02R
$$

NVZ017-020-022-190400-
SOUTHERN NEVADA

CITY           SKY/WX    TMP DP  RH WIND       PRES   REMARKS
LAS VEGAS      PTCLDY    82  13   7 S13       29.79R
N. LAS VEGAS   CLEAR     81  11   7 S8        29.81S
NELLIS AFB     CLEAR     80  17   9 SE8       29.80R
HENDERSON      CLEAR     79  17  10 SW10      29.86R
MERCURY        CLEAR     72  10   9 W5        29.89R
$$



USA.gov is the U.S. government's official web portal to all federal, state and local government web resources and services.